TimeEDT,TemperatureF,Dew PointF,Humidity,Sea Level PressureIn,VisibilityMPH,Wind Direction,Wind SpeedMPH,Gust SpeedMPH,PrecipitationIn,Events,Conditions,WindDirDegrees,DateUTC
12:55 AM,60.1,53.1,78,30.19,10.0,SSE,3.5,-,N/A,,Clear,160,2013-08-17 04:55:00
1:55 AM,57.9,52.0,81,30.20,10.0,Calm,Calm,-,N/A,,Clear,0,2013-08-17 05:55:00
2:55 AM,57.9,54.0,87,30.19,10.0,NE,3.5,-,N/A,,Clear,50,2013-08-17 06:55:00
3:55 AM,57.0,54.0,89,30.20,10.0,East,3.5,-,N/A,,Clear,80,2013-08-17 07:55:00
4:55 AM,55.9,54.0,93,30.20,10.0,ENE,3.5,-,N/A,,Clear,70,2013-08-17 08:55:00
5:55 AM,55.0,53.1,93,30.21,9.0,ENE,3.5,-,N/A,,Clear,70,2013-08-17 09:55:00
6:55 AM,55.0,53.1,93,30.22,8.0,East,3.5,-,N/A,,Clear,80,2013-08-17 10:55:00
7:55 AM,55.9,53.1,90,30.23,10.0,East,3.5,-,N/A,,Clear,80,2013-08-17 11:55:00
8:55 AM,60.1,55.0,83,30.23,10.0,East,3.5,-,N/A,,Clear,90,2013-08-17 12:55:00
9:55 AM,64.9,57.0,75,30.24,10.0,East,4.6,-,N/A,,Clear,90,2013-08-17 13:55:00
10:55 AM,69.1,59.0,70,30.23,10.0,SE,5.8,-,N/A,,Clear,140,2013-08-17 14:55:00
11:55 AM,73.0,61.0,66,30.22,10.0,Variable,5.8,-,N/A,,Clear,0,2013-08-17 15:55:00
12:55 PM,78.1,57.0,48,30.20,10.0,SSW,10.4,-,N/A,,Clear,200,2013-08-17 16:55:00
1:55 PM,79.0,55.0,44,30.18,10.0,SSW,12.7,-,N/A,,Clear,200,2013-08-17 17:55:00
2:55 PM,80.1,54.0,40,30.17,10.0,SSW,11.5,-,N/A,,Clear,200,2013-08-17 18:55:00
3:55 PM,80.1,55.0,42,30.16,10.0,SSW,11.5,-,N/A,,Clear,200,2013-08-17 19:55:00
4:55 PM,79.0,54.0,42,30.15,10.0,SW,9.2,-,N/A,,Clear,220,2013-08-17 20:55:00
5:55 PM,78.1,54.0,43,30.16,10.0,SSW,11.5,-,N/A,,Clear,210,2013-08-17 21:55:00
6:55 PM,75.9,55.0,48,30.16,10.0,SSW,11.5,-,N/A,,Clear,210,2013-08-17 22:55:00
7:55 PM,73.0,55.9,55,30.16,10.0,SW,6.9,-,N/A,,Clear,220,2013-08-17 23:55:00
8:55 PM,69.1,55.9,63,30.16,10.0,SSW,5.8,-,N/A,,Clear,200,2013-08-18 00:55:00
9:55 PM,66.0,54.0,65,30.16,10.0,South,4.6,-,N/A,,Clear,170,2013-08-18 01:55:00
10:55 PM,62.1,55.0,78,30.16,10.0,South,4.6,-,N/A,,Clear,170,2013-08-18 02:55:00
11:55 PM,61.0,54.0,78,30.17,10.0,Calm,Calm,-,N/A,,Clear,0,2013-08-18 03:55:00